FW2200 Weather Reports


Display with metric or nautical units.
time (UTC)temp
F
wind
direction
speed
MPH
gust
MPH
rain 1hr
in
rain 24hr
in
rain mn
in
humidity
%
barometer
mb
20260510060043 61 167 0.0 0.0 0.00 0.00 0.00 72 1015.8
20260510054533 61 167 0.0 0.0 0.00 0.00 0.00 73 1015.7
20260510053030 60 167 0.0 0.0 0.00 0.00 0.00 73 1015.4
20260510051528 60 168 0.0 0.0 0.00 0.00 0.00 73 1015.4
20260510050024 60 167 0.0 0.0 0.00 0.00 0.00 71 1015.1
20260510044523 60 167 0.0 0.0 0.00 0.00 0.00 69 1015.1
20260510043024 61 168 0.0 0.0 0.00 0.00 0.00 69 1015.1
20260510041532 61 167 0.0 0.0 0.00 0.00 0.00 70 1015.1
20260510040022 62 167 0.0 0.0 0.00 0.00 0.00 69 1015.2
20260510034524 62 167 0.0 0.0 0.00 0.00 0.00 65 1015.1
20260510033017 63 168 0.0 0.0 0.00 0.00 0.00 65 1014.6
20260510031515 62 166 0.0 0.0 0.00 0.00 0.00 63 1014.3
20260510030014 63 166 0.0 0.0 0.00 0.00 0.00 64 1014.0
20260510024513 63 166 0.0 0.0 0.00 0.00 0.00 63 1013.8
20260510023013 64 166 0.0 0.0 0.00 0.00 0.00 60 1013.5
20260510021514 65 166 0.0 0.0 0.00 0.00 0.00 59 1013.2
20260510020012 66 166 0.0 0.0 0.00 0.00 0.00 58 1012.7
20260510014513 68 166 0.0 0.0 0.00 0.00 0.00 57 1012.5
20260510013011 70 166 0.0 0.0 0.00 0.00 0.00 56 1012.3
20260510011510 71 166 0.0 0.0 0.00 0.00 0.00 52 1012.2
20260510010009 73 166 0.0 0.0 0.00 0.04 0.00 49 1011.9
20260510004508 75 166 0.0 0.0 0.00 0.04 0.00 46 1011.9
20260510003008 78 222 0.0 0.0 0.00 0.04 0.00 44 1011.8
20260510001507 80 222 0.0 0.0 0.00 0.04 0.00 40 1011.9
20260510000006 83 222 0.0 1.0 0.00 0.04 0.00 35 1011.9
20260509234505 85 219 0.0 5.0 0.00 0.04 0.00 33 1011.9
20260509233005 86 228 0.0 2.0 0.00 0.04 0.00 32 1012.1
20260509231503 86 211 0.0 3.0 0.00 0.04 0.00 31 1012.1
20260509230003 86 208 0.0 2.0 0.00 0.04 0.00 33 1012.0
20260509224504 86 162 0.0 4.0 0.00 0.04 0.00 34 1012.1
20260509223002 85 201 1.0 3.0 0.00 0.04 0.00 33 1012.2
20260509221501 87 211 0.0 4.0 0.00 0.04 0.00 31 1012.1
20260509220059 87 166 0.0 4.0 0.00 0.04 0.00 31 1012.1
20260509214559 87 172 1.0 3.0 0.00 0.04 0.00 31 1012.1
20260509213056 86 228 0.0 2.0 0.00 0.04 0.00 32 1012.2
20260509211555 86 185 1.0 3.0 0.00 0.04 0.00 32 1012.3
20260509210106 86 308 0.0 4.0 0.00 0.04 0.00 32 1012.6
20260509204559 86 206 1.0 4.0 0.00 0.04 0.00 32 1012.7
20260509203052 86 181 0.0 5.0 0.00 0.04 0.00 33 1012.9
20260509201551 87 162 0.0 2.0 0.00 0.04 0.00 32 1012.9
20260509200056 86 129 0.0 6.0 0.00 0.04 0.00 33 1013.0
20260509194548 86 302 0.0 2.0 0.00 0.04 0.00 30 1013.0
20260509193045 85 345 0.0 2.0 0.00 0.04 0.00 32 1013.1
20260509191544 84 9 0.0 1.0 0.00 0.04 0.00 33 1013.3
20260509190052 84 194 0.0 3.0 0.00 0.04 0.00 38 1013.4
20260509184549 83 222 0.0 4.0 0.00 0.04 0.00 34 1013.5
20260509183037 82 207 0.0 4.0 0.00 0.04 0.00 44 1013.5
20260509181543 82 201 1.0 4.0 0.00 0.04 0.00 41 1013.6
20260509180033 82 283 1.0 4.0 0.00 0.04 0.00 39 1013.7
20260509174535 81 159 0.0 5.0 0.00 0.04 0.00 37 1013.7
20260509173028 80 242 2.0 5.0 0.00 0.04 0.00 43 1013.8
20260509171525 79 230 0.0 2.0 0.00 0.04 0.00 49 1014.0
20260509170022 77 272 1.0 3.0 0.00 0.04 0.00 52 1013.9
20260509164519 77 299 1.0 3.0 0.00 0.04 0.00 53 1013.8
20260509163018 76 226 0.0 2.0 0.00 0.04 0.00 56 1013.9
20260509161513 75 177 0.0 3.0 0.00 0.04 0.00 58 1014.0
20260509160009 74 109 0.0 3.0 0.00 0.04 0.00 64 1014.0
20260509154505 73 219 0.0 2.0 0.00 0.04 0.00 66 1014.0
20260509153001 72 267 0.0 3.0 0.00 0.04 0.00 64 1014.1
20260509151558 71 257 0.0 2.0 0.00 0.04 0.00 70 1014.1
20260509150056 70 180 0.0 2.0 0.00 0.04 0.00 73 1013.9
20260509144549 69 232 0.0 4.0 0.00 0.04 0.00 75 1014.1
20260509143051 67 262 1.0 0.0 0.00 0.00 0.00 77 1013.9
20260509141548 65 220 1.0 4.0 0.00 0.04 0.00 81 1014.0
20260509140047 63 192 0.0 2.0 0.00 0.04 0.00 88 1013.8
20260509134536 61 206 0.0 1.0 0.00 0.04 0.00 90 1013.6
20260509133030 60 194 0.0 1.0 0.00 0.04 0.00 91 1013.6
20260509131526 59 234 0.0 0.0 0.00 0.04 0.00 91 1013.4
20260509130025 57 206 0.0 0.0 0.00 0.04 0.00 91 1013.5
20260509124531 56 204 0.0 0.0 0.00 0.04 0.00 91 1013.5
20260509123032 54 199 0.0 0.0 0.00 0.04 0.00 91 1013.4
20260509121522 53 215 0.0 0.0 0.00 0.04 0.00 91 1013.2
20260509120020 52 215 0.0 0.0 0.00 0.04 0.00 90 1013.1
20260509114518 51 215 0.0 0.0 0.00 0.04 0.00 89 1013.0
20260509113016 51 215 0.0 0.0 0.00 0.04 0.00 89 1012.9
20260509111523 52 215 0.0 0.0 0.00 0.04 0.00 89 1012.5
20260509110014 52 215 0.0 0.0 0.00 0.04 0.00 89 1012.6
20260509104524 52 215 0.0 0.0 0.00 0.04 0.00 88 1012.5
20260509103010 52 215 0.0 0.0 0.00 0.04 0.00 88 1012.3
20260509101510 53 215 0.0 0.0 0.00 0.04 0.00 88 1012.2
20260509100006 53 215 0.0 0.0 0.00 0.04 0.00 88 1012.3
20260509094505 53 215 0.0 0.0 0.00 0.04 0.00 88 1012.4
20260509093005 53 215 0.0 0.0 0.00 0.04 0.00 87 1012.7
20260509091502 54 215 0.0 0.0 0.00 0.04 0.00 87 1012.6
20260509090101 54 215 0.0 0.0 0.00 0.04 0.00 86 1012.7
20260509084558 55 215 0.0 0.0 0.00 0.04 0.00 86 1012.8
20260509083056 55 215 0.0 0.0 0.00 0.04 0.00 85 1012.9
20260509081601 56 215 0.0 0.0 0.00 0.04 0.00 84 1013.0
20260509080059 57 215 0.0 0.0 0.00 0.04 0.00 85 1013.0
20260509074554 57 215 0.0 1.0 0.00 0.04 0.00 86 1013.0
20260509073104 57 216 0.0 1.0 0.00 0.04 0.00 87 1013.1
20260509071551 56 226 0.0 0.0 0.00 0.04 0.00 87 1012.9
20260509070051 56 226 0.0 0.0 0.00 0.04 0.00 87 1013.1
20260509064548 56 226 0.0 1.0 0.00 0.04 0.00 87 1013.1
20260509063054 56 226 0.0 0.0 0.00 0.04 0.00 86 1013.4
20260509061604 56 226 0.0 0.0 0.00 0.04 0.00 86 1013.4